Wind_Speed
18 16 16 17 17 16 15 13 13 12 11 10 10 10 10 10 9 8 8 8 8 9 9 9 10 10 10 10 10 10 10 10 9 9 10 10 11 11 11 11 11 11 11 11 11 12 12 12 13 13 14 14 14 14 14 14 14 14 14 14 15 15 15 15 15 15 15 15 14 14 14 14 13 13 14 14 14 14 13 14 14 15 15 15 14
21 18 17 17 18 18 17 16 15 14 13 12 11 11 11 11 10 10 10 10 9 9 10 10 10 11 11 10 10 10 10 9 9 9 9 9 9 10 11 12 12 11 11 11 11 11 11 11 12 12 13 13 13 13 13 13 13 13 13 14 14 14 14 14 14 14 13 13 13 13 13 13 14 14 14 15 15 15 15 15 14 14 14 15 16
21 18 20 19 18 19 19 19 18 17 16 14 13 12 12 12 11 11 11 11 11 10 10 11 11 12 12 11 10 10 10 10 9 9 9 9 9 9 9 10 11 11 11 11 11 11 11 11 11 11 11 12 12 12 12 12 12 12 12 12 13 13 13 13 13 13 13 13 14 14 14 14 15 15 16 17 17 18 18 18 17 17 18 18 19
22 20 23 23 21 21 20 20 20 19 19 17 16 15 14 14 13 12 12 12 12 12 12 12 12 13 13 13 12 11 10 10 10 10 10 9 9 9 9 9 9 10 10 10 10 11 11 11 10 10 10 11 11 11 11 11 11 11 11 11 11 11 12 12 13 14 15 16 17 17 18 18 19 19 20 21 21 21 21 21 21 21 21 21 22
24 24 26 24 23 22 21 21 21 20 20 20 19 18 16 15 15 15 15 14 14 14 14 13 13 13 14 14 14 12 11 10 10 10 10 10 9 9 9 9 9 9 9 9 9 9 10 10 11 11 11 11 10 10 10 10 10 10 11 11 11 12 12 13 14 16 17 19 20 21 22 22 23 23 24 24 24 23 23 23 22 22 23 22 22
24 25 26 25 25 24 23 24 23 21 20 20 21 21 20 18 17 17 17 17 16 16 16 15 15 15 15 16 15 14 13 12 11 11 11 11 10 9 9 9 9 8 8 8 8 8 9 9 10 11 12 11 11 11 11 11 11 11 12 12 13 14 15 16 17 19 20 22 23 24 24 25 25 25 25 25 24 23 23 23 23 23 24 24 23
28 28 28 28 28 26 25 26 25 22 20 21 23 24 23 22 20 19 20 20 19 19 18 17 17 17 17 17 17 16 15 13 12 12 12 12 11 10 10 9 9 8 8 8 8 8 8 8 9 10 11 12 12 12 12 12 12 12 13 14 15 16 17 18 19 20 22 24 25 26 26 27 27 27 26 26 25 25 25 25 25 26 27 27 27
33 32 32 31 29 29 28 30 30 28 24 22 23 25 26 26 24 22 22 22 22 21 21 20 20 20 20 19 19 19 17 15 13 13 13 13 13 11 10 10 9 8 8 8 7 7 7 8 8 9 10 11 12 12 13 13 12 12 13 14 15 16 17 18 19 20 21 23 25 26 27 28 28 28 28 28 28 29 29 29 30 30 31 31 32
37 37 34 30 27 29 32 34 35 33 29 26 25 26 27 27 27 26 25 24 24 24 24 24 23 23 23 22 21 21 19 17 15 14 14 14 14 13 11 11 10 9 8 8 7 6 6 6 7 8 9 9 10 11 12 12 12 12 12 12 13 15 16 16 17 18 20 22 24 25 26 26 27 28 28 29 30 30 30 31 31 31 32 32 33
41 40 35 30 27 29 32 33 32 33 32 29 25 25 27 28 28 28 27 27 26 26 27 27 26 26 26 25 24 23 22 19 16 15 16 16 16 14 13 12 11 10 9 8 7 6 5 5 5 6 6 7 8 9 10 11 11 10 10 10 10 11 12 13 14 15 17 19 21 22 23 24 24 25 26 27 27 28 28 29 30 30 31 31 32
42 40 35 32 30 30 31 32 33 33 33 31 27 25 26 28 28 29 29 29 29 29 29 29 29 28 28 27 26 25 23 21 18 17 17 17 18 16 15 14 12 11 10 9 8 6 5 4 3 3 4 4 5 6 7 8 9 9 8 8 8 8 8 8 9 11 12 14 16 17 19 20 20 21 22 23 23 24 25 26 27 27 28 28 29
40 37 33 33 33 31 32 36 36 35 34 34 30 27 28 30 29 28 29 30 30 30 30 31 31 30 30 29 28 27 25 22 20 19 19 20 19 18 17 16 14 12 11 10 9 8 7 5 4 3 2 2 2 3 4 5 6 7 7 6 6 6 6 6 6 6 7 9 10 12 13 14 15 16 16 18 19 20 21 21 22 23 24 24 25
47 41 35 34 37 37 37 37 35 34 36 36 32 30 33 34 31 29 29 30 32 32 32 32 32 32 31 30 30 28 27 24 22 21 21 22 22 21 20 19 17 15 12 11 11 10 9 8 6 5 3 2 1 0 2 3 3 4 5 5 5 5 4 4 4 3 3 4 5 7 8 8 9 10 11 13 14 15 16 17 18 18 19 20 20
59 53 44 40 42 45 47 44 39 37 38 38 36 37 38 36 33 34 35 33 34 34 33 32 32 32 33 32 31 30 28 27 25 23 22 23 24 23 22 22 20 18 15 13 13 12 11 10 9 7 6 5 4 3 2 1 1 2 2 3 4 3 3 2 2 2 1 1 1 2 3 4 5 5 6 7 8 10 11 12 13 14 15 15 15
62 59 54 50 46 46 47 49 46 43 41 40 40 40 40 38 38 40 43 42 41 39 35 33 32 33 33 33 33 33 31 29 27 26 24 24 26 26 26 25 22 20 18 16 15 14 13 12 11 10 9 8 7 6 5 4 3 2 1 1 1 2 2 1 1 1 2 2 2 2 2 2 2 2 2 3 3 4 6 7 7 8 9 10 10
62 61 59 58 56 52 49 48 48 47 46 45 44 43 41 41 42 43 45 46 45 41 37 34 34 33 32 33 34 35 34 31 30 29 26 25 27 28 29 28 25 23 21 20 18 17 15 14 13 13 12 11 10 10 9 8 6 5 5 3 2 2 1 1 2 2 3 3 4 4 4 5 5 5 5 4 3 2 2 1 1 2 3 4 5
63 62 62 62 63 62 59 55 51 50 50 48 47 45 42 42 44 46 47 47 44 41 38 36 35 33 30 29 32 36 36 34 32 31 28 27 28 31 32 30 28 25 23 22 21 20 18 17 16 15 15 13 13 13 13 12 10 9 8 7 6 5 5 5 4 4 4 4 4 5 7 7 8 8 8 8 7 7 6 5 5 4 3 2 2
64 64 63 63 63 63 62 59 54 51 51 51 49 46 43 43 46 48 49 48 45 44 42 40 37 35 31 29 30 33 35 35 34 33 32 30 30 32 34 32 30 28 25 24 23 22 21 20 18 18 16 15 15 15 16 15 14 11 11 10 9 8 9 9 7 6 7 7 6 6 7 8 9 10 11 11 11 11 11 11 10 10 9 8 8
66 65 65 64 64 62 62 61 57 51 49 50 50 48 44 42 45 48 49 49 47 47 47 45 43 39 35 33 32 31 31 33 34 34 34 33 32 34 35 35 33 30 27 25 24 24 23 22 21 20 18 16 16 17 17 17 16 14 13 13 11 11 13 13 12 10 9 9 10 9 9 9 10 10 11 12 13 14 15 15 15 15 15 14 13
67 67 66 65 65 64 63 64 64 58 53 51 50 49 46 45 46 47 48 50 51 51 50 48 47 43 38 35 32 30 28 31 34 35 35 35 35 36 37 38 36 31 28 26 25 25 25 24 23 22 20 19 18 19 18 18 17 16 16 15 14 14 16 17 17 16 13 12 12 13 12 12 13 13 14 14 15 16 17 17 18 18 18 18 18
68 67 67 66 66 66 66 68 69 66 61 58 55 52 50 48 48 49 50 50 52 53 52 50 49 47 42 38 33 29 27 30 34 36 37 38 38 37 38 40 39 34 29 26 26 27 26 25 24 24 23 22 21 21 20 19 18 17 16 15 15 17 18 19 19 18 17 16 15 15 14 14 15 16 17 17 18 19 20 20 20 20 20 20 21
69 68 68 67 67 67 67 69 71 70 66 64 62 58 54 51 50 51 52 52 52 52 53 52 51 49 47 44 39 34 32 33 36 38 39 40 40 39 39 42 42 37 31 28 28 28 27 26 26 25 24 24 24 24 23 21 19 17 14 14 16 18 19 20 20 19 18 18 17 17 16 16 16 17 17 18 19 19 19 18 19 19 20 21 22
71 69 68 68 68 68 68 70 71 71 69 68 69 66 62 58 54 51 50 51 53 54 53 52 52 52 51 49 46 41 39 39 42 42 41 41 42 40 40 42 43 40 34 31 29 29 29 28 26 25 25 26 25 25 26 25 22 17 13 14 17 19 20 21 20 19 19 19 18 17 16 16 16 16 17 18 19 19 18 17 16 15 16 18 20
73 71 70 69 69 69 69 70 71 72 71 72 73 72 69 65 60 55 51 50 52 56 56 53 53 54 54 53 51 48 45 43 43 44 43 43 44 43 41 42 43 40 37 33 31 30 29 28 27 27 27 27 26 26 28 29 26 20 15 14 16 19 20 20 19 19 18 18 18 17 17 16 16 16 17 17 18 19 19 19 18 16 14 13 15
77 74 73 72 71 70 70 70 71 73 74 75 76 77 75 70 65 62 59 56 54 55 56 56 55 55 55 55 54 53 51 48 46 45 44 44 45 45 44 44 43 41 40 37 34 32 30 29 29 30 29 28 27 27 29 31 29 22 16 15 17 18 19 19 19 19 18 17 17 18 18 18 18 18 18 18 18 18 18 19 19 19 17 15 13
81 80 78 76 74 73 72 71 72 73 75 76 78 79 78 75 71 68 66 65 62 59 58 58 58 57 56 57 56 55 55 53 51 50 47 46 47 46 45 44 43 42 41 39 36 32 30 30 31 32 32 30 29 29 30 31 28 22 17 16 17 18 18 18 19 19 18 18 18 18 18 18 19 19 19 19 18 17 18 19 19 18 18 18 18
85 84 82 80 78 76 75 74 74 74 75 76 78 79 79 77 75 73 71 70 69 67 64 62 61 60 59 58 58 58 57 57 56 54 50 48 48 48 46 44 44 43 42 42 38 35 34 34 34 34 35 34 33 33 33 32 28 24 22 20 18 17 17 17 18 19 18 17 18 18 18 18 18 18 18 19 18 18 18 20 20 18 17 18 20
89 88 86 85 83 80 78 77 76 76 77 77 78 78 78 77 77 76 75 73 73 72 70 65 63 63 62 61 60 60 60 60 60 58 53 50 49 49 47 46 45 45 45 45 43 41 40 39 37 36 37 37 36 36 36 34 30 28 26 23 20 18 17 17 18 18 17 17 17 18 19 19 18 17 17 18 19 19 19 20 21 21 20 20 21
92 91 90 89 87 85 83 81 79 79 80 80 79 78 78 77 77 78 78 76 75 76 75 70 65 64 65 65 63 62 62 62 61 60 57 54 52 51 50 49 48 47 48 48 45 45 45 43 40 38 37 37 38 38 36 33 31 31 29 25 21 19 18 18 19 18 17 18 18 19 20 21 20 18 18 18 19 20 20 21 22 23 23 23 23
95 94 93 92 91 89 87 84 83 83 83 82 81 80 79 78 77 78 78 78 78 79 79 75 69 66 67 68 67 65 64 63 63 62 60 59 56 54 53 53 52 50 49 48 46 47 46 44 41 40 39 39 39 39 36 33 32 32 31 27 24 22 20 20 20 19 19 19 20 21 22 23 23 22 21 21 21 21 22 23 24 24 24 25 26
97 96 95 95 94 92 90 89 87 86 86 86 84 82 81 80 79 79 79 79 79 80 81 78 73 69 69 70 70 68 67 66 65 64 63 63 60 57 55 55 55 53 50 48 48 49 48 45 44 43 42 41 41 40 37 34 32 31 30 29 27 25 23 22 21 21 21 22 23 23 24 25 27 27 26 25 24 25 26 27 27 27 26 25 26
100 98 97 97 96 95 94 92 91 90 89 88 87 85 84 83 82 81 81 81 80 81 81 79 77 74 73 72 73 72 70 69 68 67 66 65 63 60 58 57 57 56 53 51 50 52 52 50 48 47 46 44 44 43 39 35 33 31 30 30 30 28 26 24 22 22 23 24 25 26 27 27 28 30 30 29 28 29 30 31 32 32 30 29 29
104 102 100 99 98 97 96 95 94 93 92 91 89 88 87 87 86 85 84 83 82 82 81 80 79 78 77 75 75 75 74 72 70 69 68 67 66 63 61 60 59 58 57 56 55 54 55 55 53 51 49 47 46 46 42 36 33 33 32 32 31 31 29 27 25 24 25 26 27 29 30 30 30 32 33 33 33 33 34 35 35 36 36 35 34
108 106 104 103 101 99 99 98 97 96 95 93 92 91 91 91 90 89 88 87 85 83 83 82 80 80 80 78 77 77 77 75 73 71 69 67 67 66 64 63 62 60 59 59 58 56 56 57 56 53 51 49 48 47 44 38 35 35 36 36 36 35 32 29 27 25 25 26 28 30 31 32 32 33 34 36 37 38 38 38 38 39 41 41 41
112 110 109 107 105 103 101 100 99 98 97 96 95 94 94 93 93 92 91 90 88 86 86 84 82 81 81 81 80 79 79 77 75 74 72 70 68 68 67 67 66 64 61 60 59 57 56 57 57 55 53 51 49 48 44 40 37 37 37 38 40 38 34 30 28 25 24 26 29 31 32 34 35 36 37 38 39 40 41 42 42 42 42 42 40
116 114 112 111 109 107 105 103 102 100 100 99 98 97 96 95 95 94 94 93 92 90 89 88 86 84 83 82 82 81 81 79 77 75 75 73 71 70 69 68 68 66 64 63 61 58 57 58 58 56 54 53 52 49 46 42 40 40 40 40 40 38 36 34 31 27 26 28 31 34 35 36 38 39 40 41 42 43 45 45 43 40 38 37 38
120 118 116 114 112 110 109 107 105 103 102 102 101 100 98 97 96 96 96 95 95 94 92 91 89 88 85 84 83 83 84 84 81 79 77 76 74 72 70 70 68 67 66 65 63 60 59 60 60 58 55 54 54 53 49 46 45 46 44 40 37 38 39 39 37 33 32 32 34 34 35 38 39 39 41 45 49 51 51 48 45 43 42 41 41
124 122 120 118 115 113 112 111 110 108 106 105 104 103 101 99 98 98 98 97 97 97 96 94 93 92 89 86 85 85 87 87 85 83 81 79 77 74 73 72 70 69 68 68 66 63 60 60 60 58 56 57 57 56 52 50 51 52 48 41 38 40 43 42 40 37 36 37 38 36 34 36 37 38 44 54 59 58 56 54 53 52 52 51 50
128 126 124 122 119 117 116 115 113 112 110 108 107 106 104 103 101 99 99 99 98 99 99 98 96 95 93 90 88 88 89 89 88 87 85 82 80 78 77 75 74 72 71 71 69 66 63 62 61 58 57 59 60 58 55 54 57 59 56 48 45 47 48 46 41 39 39 40 40 39 37 37 37 40 49 59 63 61 60 60 59 58 58 58 57
130 129 127 125 123 121 120 118 117 115 113 111 109 108 107 106 104 102 101 100 100 100 101 101 100 98 96 94 92 91 91 91 91 90 88 86 84 82 81 80 78 76 74 74 72 70 66 64 63 59 57 58 60 59 56 58 61 63 62 56 50 49 50 48 42 40 41 41 41 40 38 37 39 44 50 58 62 63 63 62 61 62 62 62 62
132 131 130 128 127 125 123 122 120 119 117 114 112 111 110 109 108 106 104 103 102 102 102 102 103 101 99 97 96 95 94 94 93 92 91 90 88 86 84 83 82 79 77 76 75 74 71 68 66 64 59 58 60 60 59 60 63 64 65 61 54 51 51 49 44 42 43 43 43 42 39 38 42 46 48 52 57 60 62 63 64 66 66 66 65
132 132 131 130 129 128 127 125 123 121 120 117 115 114 113 112 111 110 108 106 105 104 104 104 104 103 102 100 99 99 98 97 95 94 93 93 92 90 88 86 85 83 81 79 78 77 75 72 71 69 65 61 60 61 61 61 63 64 65 63 58 54 53 53 49 47 47 46 45 44 42 39 40 41 44 49 55 57 58 61 65 69 69 69 68
131 131 131 131 131 131 129 127 126 124 122 120 118 117 116 115 114 113 112 110 108 107 106 105 105 105 104 102 102 103 103 100 98 96 95 95 95 94 92 90 89 87 85 83 81 80 79 77 74 73 72 67 63 62 62 62 63 65 65 64 60 56 55 55 53 50 49 48 48 47 46 43 41 40 44 52 58 57 55 55 59 63 65 66 68
129 129 129 130 131 132 131 129 127 126 125 123 122 120 120 119 117 116 115 114 112 111 109 108 106 105 105 104 104 105 105 104 101 99 98 97 97 97 96 95 94 92 90 88 86 84 83 81 78 77 77 74 69 65 64 64 65 67 67 64 62 60 58 58 57 54 51 49 49 50 51 51 50 49 50 54 58 57 54 53 56 60 64 67 70
126 126 127 128 129 130 131 130 129 128 127 126 125 124 123 122 120 119 118 117 115 114 113 111 109 108 107 106 106 107 108 107 105 103 101 99 99 99 98 98 97 96 94 93 91 89 87 85 83 80 80 78 75 71 69 67 68 69 68 65 62 61 59 59 60 59 54 51 50 52 55 59 61 60 59 60 62 62 61 62 65 69 72 74 75
120 121 123 125 126 128 128 129 129 129 129 128 128 127 126 124 123 123 122 120 119 117 116 115 113 112 110 108 107 108 109 110 109 107 105 103 101 100 100 99 99 99 98 97 96 94 91 89 87 85 83 81 79 77 75 73 72 71 70 67 64 62 60 59 61 62 60 57 55 56 59 63 66 66 65 64 65 66 68 70 73 75 77 78 78
113 115 117 120 122 125 126 127 128 129 130 130 130 129 128 127 126 125 125 124 122 121 119 118 117 116 113 111 109 109 110 111 111 110 108 106 104 103 102 100 100 100 101 100 100 99 96 94 91 90 88 86 83 81 81 79 77 76 74 72 70 68 66 65 65 66 66 65 64 63 65 67 69 70 71 71 71 72 73 75 77 79 80 81 82
107 109 111 114 117 119 122 124 125 127 129 130 131 131 131 130 129 128 127 126 125 124 122 121 120 119 117 114 112 111 111 112 112 112 111 110 108 106 105 103 102 101 101 102 102 102 101 99 96 94 93 91 89 86 85 85 84 82 81 80 79 77 76 75 75 74 74 72 71 71 71 72 74 75 77 78 79 80 81 81 81 82 83 84 85
100 103 106 109 111 113 116 118 121 124 127 129 131 132 132 132 132 131 130 129 127 126 125 123 122 121 120 118 116 115 114 113 113 113 114 113 111 109 108 107 105 104 103 102 103 104 104 103 102 99 98 96 94 93 91 89 89 89 88 88 88 89 88 87 86 85 84 82 79 78 78 79 81 82 84 87 88 88 87 86 86 86 86 87 88
94 97 99 103 106 108 110 112 115 119 122 126 129 131 133 133 133 133 132 131 129 128 127 126 125 124 122 121 119 118 117 115 115 115 115 115 114 113 111 110 108 107 106 105 105 105 106 106 106 104 103 101 100 99 97 94 92 93 93 93 94 95 96 95 94 94 93 91 90 88 88 90 91 93 94 95 94 93 91 90 90 90 90 90 90
89 90 92 95 99 102 105 107 110 113 117 121 125 129 132 133 134 134 133 132 131 129 128 128 127 126 125 124 122 121 120 119 117 116 116 116 116 116 114 113 111 110 109 108 107 107 107 108 108 108 107 106 105 104 102 99 97 97 98 98 98 99 99 99 98 98 97 97 95 94 93 94 95 96 96 96 95 94 93 93 93 92 92 92 93
Wind_Direction
263 268 272 277 280 279 274 270 267 266 265 261 263 272 279 284 290 298 306 317 327 333 332 330 332 338 345 354 359 2 7 11 13 15 15 13 7 2 358 356 356 354 352 350 350 349 346 344 343 342 342 342 342 341 340 342 342 342 343 344 346 348 351 352 353 354 355 356 356 356 355 355 356 356 355 353 354 356 356 357 357 353 351 356 1
252 263 269 269 271 275 275 271 265 263 264 262 260 263 269 275 279 286 293 300 310 319 323 322 321 321 328 336 345 351 353 357 359 1 5 8 5 0 355 353 352 351 351 351 351 349 347 345 343 343 344 343 343 344 343 344 346 347 347 347 348 351 353 355 356 358 0 1 2 3 2 2 2 3 3 4 7 10 11 10 10 7 4 6 10
234 250 264 264 261 266 270 271 268 263 261 261 259 257 259 265 268 273 281 288 296 303 309 314 314 311 313 319 327 335 340 343 345 346 350 355 358 357 354 352 350 350 350 353 355 354 353 352 351 349 349 349 349 351 351 352 354 355 355 355 356 357 359 0 2 6 11 14 16 19 20 19 20 21 22 23 25 27 27 26 23 21 20 19 20
214 225 246 256 258 260 264 269 269 264 262 261 260 257 254 256 260 263 268 275 283 290 295 300 304 305 303 304 310 318 324 329 331 332 335 340 345 348 349 348 349 349 351 354 357 358 1 1 359 358 359 359 359 0 2 4 5 7 7 9 10 10 9 10 13 18 23 27 29 31 33 34 37 38 39 39 38 38 36 33 30 29 28 27 26
215 224 235 245 251 254 258 263 263 262 263 263 262 260 254 252 254 255 258 263 269 276 282 287 290 293 294 293 295 298 306 313 316 319 322 326 331 335 338 340 344 349 353 358 359 3 6 5 5 6 7 9 11 11 12 14 17 20 22 24 26 26 26 28 30 32 35 37 39 41 43 45 46 47 47 47 45 44 42 39 37 36 36 35 33
225 232 234 235 238 242 250 256 256 256 257 259 262 262 258 253 250 250 252 255 259 263 268 272 276 279 281 282 282 283 288 295 300 305 309 312 317 321 325 329 335 342 350 357 4 10 13 10 10 11 12 14 15 17 20 25 29 32 34 36 38 40 42 44 45 47 49 51 52 52 53 54 55 55 56 55 54 53 52 51 50 48 48 50 50
232 234 234 231 233 239 246 248 248 251 253 254 256 259 260 257 252 248 248 248 250 253 257 260 263 266 268 270 271 272 274 279 285 291 296 299 303 308 312 317 324 331 338 346 358 10 14 15 17 17 17 17 17 22 28 35 39 40 40 42 44 47 50 53 54 57 62 65 66 66 66 65 65 65 66 67 68 69 68 67 67 66 65 66 67
233 231 231 233 238 242 239 233 231 238 248 251 250 252 257 259 257 252 248 247 247 247 249 251 253 255 257 259 261 262 263 266 272 279 284 288 291 295 299 304 310 318 324 331 342 356 6 12 17 21 23 24 23 26 32 38 41 43 46 48 51 54 56 59 61 65 71 75 76 78 78 77 77 77 77 79 80 80 81 80 79 78 78 78 78
232 230 233 240 244 242 238 232 226 228 237 242 241 243 250 256 260 259 254 251 248 246 245 245 246 248 250 251 253 255 255 256 260 267 273 278 281 284 288 291 294 299 305 312 322 336 352 4 11 17 24 30 30 31 34 38 41 44 48 52 58 65 70 71 73 76 81 84 85 87 87 87 87 87 87 87 87 87 86 86 86 85 85 86 86
233 232 235 241 240 235 236 238 236 237 240 239 240 244 246 250 256 261 261 260 256 252 249 246 246 246 247 248 248 250 251 251 253 258 264 268 271 274 276 278 280 284 287 292 302 314 329 346 2 12 22 31 35 36 38 40 43 43 46 50 56 66 75 80 82 84 87 90 92 94 94 94 94 94 93 92 91 91 90 89 89 90 90 90 91
231 229 234 240 239 237 238 242 247 250 246 243 250 256 251 247 250 256 260 263 264 262 257 253 251 248 248 248 248 249 250 249 249 252 257 261 264 267 268 269 270 272 275 279 284 291 301 313 333 353 15 29 39 44 45 44 45 46 46 48 49 54 63 73 80 84 86 89 93 96 97 97 97 98 98 97 95 94 93 92 92 91 92 92 93
226 227 236 242 241 243 246 246 249 251 247 246 253 261 256 250 249 253 258 262 263 265 264 260 257 254 251 250 250 250 252 251 249 249 252 257 260 262 263 264 263 263 264 269 273 276 280 284 288 300 327 8 34 54 57 53 51 51 49 46 46 47 50 56 68 79 85 88 93 97 98 98 99 100 101 100 100 99 98 96 94 92 91 92 92
231 233 236 236 235 237 240 242 244 246 247 247 248 249 251 250 246 243 250 261 264 263 264 263 261 258 256 254 252 252 253 253 252 249 250 255 257 259 260 260 260 258 256 259 264 266 267 267 267 266 266 271 286 43 80 72 65 61 59 53 47 40 40 43 56 70 85 91 96 101 101 102 102 103 105 105 104 103 102 99 97 95 93 90 90
238 237 232 228 229 232 234 238 242 244 245 244 241 240 243 247 242 229 229 242 253 256 259 262 262 261 258 256 255 252 251 252 253 251 249 252 256 257 257 257 257 256 254 252 255 258 259 259 258 256 254 250 248 242 222 172 118 89 77 68 59 46 33 27 33 41 44 80 100 112 113 112 111 111 113 113 110 107 105 102 98 96 94 90 86
238 237 232 227 227 229 233 238 243 243 242 241 241 240 240 242 239 229 223 225 232 239 246 252 256 258 257 256 255 254 251 249 250 250 247 249 254 257 257 256 255 255 255 252 250 252 253 253 253 252 249 245 242 239 231 220 214 212 200 100 70 61 35 1 335 320 304 292 276 248 231 223 203 180 160 144 133 121 113 105 99 97 95 90 84
236 236 233 230 229 229 234 240 243 242 240 241 242 243 242 240 237 233 229 227 227 232 239 245 248 251 253 254 255 255 253 250 248 249 246 245 250 255 256 256 255 254 254 253 251 249 249 248 248 248 246 241 239 237 231 222 218 221 226 233 246 267 271 271 281 282 276 275 274 267 257 252 250 246 245 243 235 225 209 158 105 89 89 86 79
233 234 234 233 232 232 236 240 242 241 240 240 241 242 242 240 236 234 233 232 231 233 237 241 246 248 250 255 258 258 257 255 252 251 248 244 246 251 254 256 255 253 252 251 251 251 249 247 246 245 242 239 237 237 234 226 220 221 228 232 236 249 254 246 251 269 272 267 269 272 269 264 261 261 261 260 260 262 264 265 272 284 295 303 325
232 232 233 233 233 234 235 236 237 239 240 241 241 239 238 238 238 236 235 235 234 235 236 239 243 243 243 247 252 255 258 259 258 257 254 249 246 249 253 255 254 253 251 249 250 251 252 251 249 246 243 239 239 239 237 233 227 223 229 235 238 248 253 245 236 244 261 267 266 268 273 275 273 271 270 271 271 273 275 276 277 283 288 291 296
232 231 232 232 232 232 232 232 232 233 236 238 238 235 235 237 239 239 240 240 239 239 239 240 241 241 241 241 242 246 252 255 255 257 257 254 249 248 251 254 254 252 249 248 248 250 252 253 253 252 249 245 245 244 241 238 234 229 231 237 241 248 255 254 246 240 246 258 264 266 271 279 284 284 282 281 281 282 283 282 282 283 286 289 292
232 231 231 231 230 230 229 229 229 229 230 233 233 230 232 236 239 240 241 243 243 242 241 241 241 242 244 244 243 245 250 254 253 252 253 253 250 248 249 252 253 252 248 246 246 247 249 251 254 255 255 255 254 252 248 245 240 236 235 237 241 245 252 257 258 256 255 259 265 271 275 279 283 286 288 290 290 291 292 292 290 288 287 289 290
233 232 231 230 229 228 227 227 229 230 229 229 229 228 230 234 238 241 242 243 244 243 242 242 242 242 243 244 242 241 245 252 255 254 253 252 249 247 247 250 252 252 249 246 245 245 247 249 252 255 258 260 262 261 258 253 247 243 239 238 241 245 250 256 261 265 267 269 271 276 282 286 288 289 291 293 294 295 297 298 298 296 295 293 291
233 232 232 230 229 228 226 225 228 229 227 225 225 228 229 231 234 239 242 244 244 243 243 243 242 242 242 242 241 237 235 239 245 247 250 251 249 245 244 247 250 251 249 246 243 244 245 246 249 253 257 261 264 266 265 261 256 251 244 239 242 247 251 256 261 266 271 275 279 284 289 293 295 297 298 299 300 302 303 304 302 299 298 296 293
233 232 232 231 230 228 227 225 226 227 226 223 223 227 229 229 230 233 237 241 242 242 243 243 242 242 243 242 241 238 234 234 237 239 241 244 246 245 243 246 249 250 248 245 241 241 244 245 247 249 253 256 260 264 267 266 263 259 252 244 245 248 253 257 262 267 273 279 284 290 296 299 301 303 304 305 307 312 316 317 313 307 303 301 298
234 233 232 231 230 229 228 226 225 226 226 223 223 227 231 231 232 232 233 236 238 239 241 243 242 241 242 241 240 239 236 233 234 236 237 239 241 242 241 243 247 249 247 245 241 239 242 246 248 249 250 252 254 258 264 267 266 265 261 255 250 250 254 260 265 270 275 282 289 295 299 303 304 305 306 307 310 315 320 321 320 320 319 314 310
236 235 233 231 230 229 229 228 226 226 226 224 224 228 232 234 235 235 234 234 235 237 239 241 241 240 240 240 240 240 241 238 235 236 237 238 239 238 236 238 242 245 246 245 241 238 238 241 246 249 250 250 251 253 259 264 267 267 265 261 256 254 255 260 266 270 275 282 289 294 299 303 306 307 307 308 310 313 315 316 318 322 324 325 325
236 236 235 233 231 229 228 228 228 227 228 227 226 228 232 235 235 236 236 236 236 237 238 239 238 238 240 241 240 240 241 241 240 240 240 239 238 237 235 236 239 242 243 243 240 236 234 236 240 245 250 251 251 251 254 259 264 268 268 263 258 255 256 258 262 266 273 279 284 290 295 300 304 307 307 306 306 307 307 307 309 313 317 319 321
237 237 236 235 233 230 229 228 228 228 228 229 229 229 231 233 234 235 236 237 236 237 238 238 237 237 239 240 240 240 240 240 241 242 241 239 238 238 237 236 237 238 240 241 239 235 233 234 235 240 245 249 251 252 254 258 263 268 269 266 260 256 257 259 258 261 266 271 278 285 290 295 301 304 302 300 300 299 298 300 302 306 308 310 313
237 237 237 236 235 233 230 228 228 228 229 230 231 231 231 232 233 233 235 236 236 236 236 237 237 236 237 238 238 238 239 241 242 242 240 239 239 238 238 236 235 235 237 239 239 238 237 236 235 236 240 245 249 253 256 260 266 269 269 267 263 261 262 262 260 260 262 267 274 281 286 291 296 297 294 290 290 290 291 293 298 302 305 307 310
237 237 237 237 236 235 233 230 229 229 229 229 230 231 232 232 232 233 234 234 235 235 235 235 236 236 235 235 236 237 238 241 243 242 240 239 238 239 240 239 236 234 236 238 239 241 242 241 238 237 238 241 247 251 255 259 264 266 266 265 264 264 265 265 266 267 269 274 279 283 286 289 291 293 290 285 283 283 284 288 293 297 301 303 305
236 236 236 236 236 236 235 233 231 230 230 229 229 230 231 231 232 233 233 233 234 235 235 235 235 236 235 233 233 235 237 239 241 242 241 239 239 240 242 242 238 236 236 238 239 241 243 242 242 241 240 241 244 248 250 254 258 262 264 264 263 263 264 266 268 271 275 279 283 286 289 290 293 295 294 289 286 285 285 287 289 291 294 297 299
237 236 236 236 236 236 235 235 233 232 231 230 229 229 230 231 231 232 233 233 233 235 236 234 234 235 235 233 232 233 235 237 239 240 240 239 239 241 242 242 240 238 237 236 238 240 240 242 245 245 243 243 244 245 246 250 254 259 262 264 263 263 263 264 267 272 277 281 284 287 289 290 290 292 293 293 291 289 288 288 287 288 289 291 293
238 237 236 236 236 236 236 235 235 234 233 232 230 229 230 230 231 231 232 233 233 234 236 235 233 234 236 235 233 232 234 236 238 239 239 239 239 240 240 240 240 240 239 238 238 239 239 241 245 247 244 244 246 247 246 247 252 257 260 261 260 260 261 261 264 270 275 280 284 287 289 290 290 290 291 291 291 292 292 291 292 294 295 296 296
238 238 237 236 236 236 235 235 235 235 234 233 232 231 230 230 230 231 231 232 232 234 235 235 234 233 235 237 235 233 233 235 237 237 238 239 238 239 239 240 240 241 242 241 241 241 240 240 243 247 247 245 246 248 246 245 249 254 256 256 256 256 256 257 258 263 270 276 282 286 288 290 291 291 290 291 292 292 292 293 295 297 297 297 297
239 238 238 237 236 236 235 235 235 235 235 234 233 232 231 230 230 230 231 231 231 232 234 235 234 233 234 236 236 235 234 234 235 236 237 238 238 237 239 240 240 241 243 243 244 245 243 240 241 245 247 246 245 247 246 245 246 250 253 254 255 255 254 254 253 255 263 270 275 280 284 287 289 291 291 291 291 291 292 292 292 292 291 292 294
240 239 238 238 237 237 236 235 235 235 235 235 234 233 232 231 230 230 231 231 231 231 233 234 235 234 234 234 236 237 237 235 235 235 235 236 236 237 237 238 240 241 242 244 245 246 244 241 240 242 245 245 244 244 244 243 244 248 252 254 254 253 253 253 251 252 261 270 275 279 281 283 286 288 290 291 292 293 293 289 286 284 285 286 287
241 240 239 238 238 237 237 236 235 234 235 235 235 234 232 232 231 230 230 231 232 231 232 233 234 234 234 234 235 237 238 237 234 234 233 234 235 236 236 237 238 240 241 243 244 245 244 242 240 241 244 245 243 241 241 240 240 243 246 248 248 246 246 246 243 241 247 261 270 276 280 282 285 288 292 294 292 287 282 278 277 279 281 279 277
242 241 240 239 238 238 237 237 236 235 234 235 235 235 234 232 232 231 231 231 231 232 232 232 233 233 233 233 234 236 238 237 236 235 234 232 233 234 235 236 237 239 240 241 242 243 243 243 242 242 245 245 241 239 240 238 236 237 239 241 241 239 239 242 241 234 233 241 250 260 270 277 281 286 287 284 277 272 272 274 276 277 276 275 276
243 242 241 240 239 238 238 238 237 236 235 234 234 235 235 233 232 232 231 231 231 232 232 232 232 232 233 232 232 234 237 237 237 236 235 234 232 233 235 236 237 238 239 239 240 241 241 242 241 243 246 245 240 238 239 237 234 235 237 241 247 247 243 244 243 237 233 235 237 240 249 260 266 270 270 269 268 268 270 272 273 272 272 273 274
243 243 242 241 241 240 239 238 238 237 236 235 234 234 235 235 233 233 232 232 231 231 232 232 232 232 232 232 232 233 235 236 236 237 237 236 234 233 234 235 237 238 238 238 238 239 239 239 240 242 245 244 240 238 238 235 234 235 237 244 255 257 249 243 242 241 239 239 237 234 237 243 249 254 258 262 265 266 267 268 269 271 273 274 274
243 243 243 242 242 241 240 239 238 238 237 236 235 234 235 235 235 234 233 232 232 231 231 232 232 232 232 232 232 232 233 235 236 236 237 237 236 235 234 234 236 237 238 237 237 238 238 238 238 241 244 242 238 238 239 236 235 238 240 244 254 257 247 240 241 242 240 239 238 235 236 238 240 244 251 256 261 264 266 268 271 272 273 273 274
243 243 243 243 242 242 241 240 239 238 238 237 236 235 235 235 235 234 233 233 233 232 231 232 232 233 232 232 232 233 233 234 234 235 236 237 237 236 235 234 235 236 237 237 238 237 237 237 238 239 242 240 237 237 240 238 237 239 240 242 249 252 245 240 241 240 238 239 240 239 240 243 244 246 251 257 261 264 268 271 272 271 271 272 274
242 242 242 242 242 242 242 241 240 239 238 237 237 236 236 235 235 235 234 233 233 233 232 232 232 232 232 232 232 233 233 233 233 234 235 236 236 236 236 235 236 236 236 237 238 238 238 238 238 238 240 240 236 236 239 239 238 238 239 241 247 250 244 240 241 241 239 239 240 239 240 245 251 258 265 267 267 266 268 272 274 274 273 271 272
241 241 241 241 242 242 242 241 241 240 239 238 237 237 236 236 235 235 234 234 234 233 233 232 232 232 232 232 232 233 234 234 233 233 233 234 235 236 236 236 236 237 237 237 238 238 238 238 238 238 239 239 237 235 236 237 237 237 238 241 247 249 244 241 242 243 241 242 242 241 242 247 255 263 270 272 272 271 269 269 272 274 273 271 270
240 240 240 240 241 241 241 241 241 241 240 240 238 237 237 236 236 235 235 234 234 234 234 233 233 232 231 231 232 233 234 235 234 233 233 233 234 235 236 236 237 237 238 238 239 238 238 238 239 238 239 239 238 235 234 235 235 236 238 241 245 247 244 242 242 243 243 244 245 245 247 252 256 256 256 259 263 265 263 260 261 265 268 271 272
241 240 240 239 239 240 240 240 240 240 240 240 239 238 237 237 236 236 235 235 234 234 234 234 233 233 232 231 231 232 234 235 235 234 233 233 233 234 235 235 236 237 238 239 239 239 239 239 239 238 239 239 239 236 234 233 234 236 237 239 242 244 243 242 241 241 241 243 244 243 244 248 250 251 250 249 251 254 256 257 259 262 266 270 272
241 241 240 240 239 239 239 239 239 239 239 239 239 239 238 237 236 236 235 235 234 234 234 234 234 233 232 231 230 231 233 234 235 235 234 234 234 234 234 235 235 236 237 238 239 240 239 239 239 239 239 239 239 238 236 234 233 234 235 235 237 239 241 241 240 239 239 240 242 242 242 243 245 247 249 248 249 253 259 261 263 264 266 268 270
242 241 240 240 239 239 238 238 238 238 238 239 239 238 238 238 237 236 235 235 234 234 233 233 233 233 233 232 231 231 231 233 235 235 235 235 234 234 235 235 235 235 236 237 238 240 240 240 239 239 239 239 239 238 237 235 234 233 233 233 234 236 239 241 241 240 239 239 239 241 242 242 243 245 247 249 252 258 262 263 263 264 265 267 268
242 242 241 240 239 238 238 237 237 237 237 237 238 238 238 237 237 236 235 234 234 233 233 233 233 233 233 232 232 231 231 232 233 235 236 235 235 234 235 235 235 235 235 236 237 238 240 240 240 240 240 240 240 239 238 237 236 235 233 233 234 236 239 241 243 244 244 243 242 241 242 243 244 246 249 252 256 260 263 263 263 264 264 265 266
243 242 241 241 240 239 238 237 236 236 236 236 237 237 237 237 237 236 235 234 233 233 232 232 232 232 233 232 232 232 231 231 232 233 235 236 236 235 235 235 235 235 235 235 236 237 239 240 241 240 240 240 241 240 239 238 238 238 238 237 238 239 241 243 245 246 248 248 247 246 246 247 248 250 253 257 260 263 264 264 263 264 264 265 266
243 242 241 241 240 239 238 237 236 236 235 235 236 236 236 236 236 236 235 235 233 232 232 232 232 232 232 232 232 232 232 232 232 232 233 235 236 236 235 235 235 236 236 235 235 236 237 239 240 241 241 241 241 242 241 240 239 241 242 242 243 244 245 246 247 249 250 251 252 252 252 253 254 255 257 260 261 263 263 264 264 265 265 266 267
244 243 241 240 240 239 239 238 237 236 235 235 235 235 235 236 236 236 235 235 234 233 232 231 231 231 231 231 231 232 232 232 232 232 232 233 235 236 236 235 235 235 236 236 236 236 237 238 239 240 241 242 242 243 243 242 241 241 243 245 246 247 248 248 249 250 251 252 253 254 255 256 257 257 258 259 260 261 263 264 265 266 266 267 268
Height
11031 11032 11033 11035 11035 11036 11036 11037 11037 11037 11038 11039 11040 11041 11042 11043 11044 11044 11044 11045 11045 11045 11045 11045 11045 11044 11044 11043 11042 11041 11040 11040 11039 11038 11037 11036 11035 11035 11034 11033 11032 11031 11030 11030 11029 11028 11027 11026 11025 11024 11024 11023 11022 11021 11020 11020 11019 11018 11017 11017 11016 11015 11014 11014 11013 11012 11011 11010 11009 11008 11007 11006 11005 11005 11003 11002 11001 11000 10999 10997 10996 10995 10994 10992 10991
11029 11030 11031 11032 11034 11034 11034 11035 11035 11036 11036 11037 11038 11039 11040 11041 11042 11043 11044 11044 11044 11045 11045 11045 11045 11044 11044 11043 11043 11042 11041 11040 11039 11038 11038 11037 11036 11035 11034 11033 11032 11032 11031 11030 11029 11028 11027 11026 11025 11025 11024 11023 11022 11021 11021 11020 11019 11018 11018 11017 11016 11016 11015 11014 11013 11012 11011 11010 11009 11008 11007 11007 11005 11004 11003 11002 11002 11000 10999 10997 10996 10996 10994 10993 10991
11026 11028 11030 11030 11031 11032 11032 11033 11034 11034 11034 11035 11036 11037 11038 11039 11040 11041 11042 11042 11043 11044 11044 11044 11044 11043 11043 11043 11042 11041 11041 11040 11039 11038 11038 11037 11036 11035 11034 11033 11033 11032 11031 11030 11030 11029 11028 11027 11026 11025 11024 11023 11022 11021 11021 11020 11019 11018 11018 11017 11017 11016 11015 11014 11013 11012 11012 11011 11010 11009 11008 11007 11006 11005 11004 11004 11003 11001 10999 10998 10997 10996 10995 10993 10991
11020 11022 11027 11029 11029 11029 11029 11030 11031 11032 11032 11033 11033 11034 11035 11036 11037 11038 11039 11040 11041 11042 11043 11043 11043 11043 11042 11042 11041 11041 11040 11039 11039 11038 11037 11037 11036 11035 11034 11033 11033 11032 11031 11031 11030 11029 11028 11027 11026 11025 11024 11023 11022 11021 11021 11020 11019 11019 11018 11018 11017 11016 11015 11015 11014 11013 11012 11011 11011 11010 11009 11008 11008 11007 11006 11005 11004 11002 11000 10999 10997 10996 10995 10994 10992
11017 11019 11022 11025 11025 11025 11026 11027 11028 11029 11030 11031 11031 11032 11033 11033 11035 11036 11037 11038 11039 11040 11041 11041 11042 11041 11041 11041 11040 11040 11039 11038 11038 11037 11037 11036 11035 11035 11034 11033 11032 11032 11031 11031 11030 11030 11029 11028 11027 11026 11025 11024 11023 11022 11021 11020 11020 11019 11019 11018 11018 11017 11016 11015 11014 11014 11013 11012 11011 11011 11010 11009 11009 11008 11007 11006 11004 11003 11001 11000 10999 10998 10997 10995 10994
11018 11019 11019 11019 11018 11018 11020 11022 11023 11024 11026 11027 11028 11029 11030 11031 11032 11033 11034 11035 11036 11037 11038 11039 11040 11040 11039 11039 11039 11038 11038 11037 11037 11036 11036 11035 11035 11034 11033 11033 11032 11032 11031 11031 11030 11030 11029 11028 11028 11027 11025 11024 11023 11022 11021 11021 11020 11020 11019 11019 11018 11018 11017 11017 11016 11015 11014 11013 11013 11012 11011 11011 11010 11009 11008 11007 11006 11005 11004 11003 11002 11001 10999 10998 10996
11015 11016 11017 11016 11015 11015 11017 11018 11019 11020 11022 11024 11025 11026 11027 11028 11029 11030 11031 11032 11033 11034 11035 11036 11037 11037 11037 11037 11037 11037 11037 11036 11036 11035 11034 11034 11034 11033 11033 11032 11032 11031 11031 11031 11030 11030 11029 11028 11028 11027 11026 11025 11024 11023 11022 11022 11021 11020 11020 11020 11019 11019 11019 11018 11018 11017 11016 11016 11015 11014 11014 11013 11012 11011 11010 11010 11009 11008 11008 11007 11006 11004 11002 11001 11000
11009 11012 11013 11013 11014 11016 11017 11014 11011 11012 11016 11019 11021 11023 11024 11025 11026 11027 11028 11028 11029 11030 11031 11033 11034 11034 11034 11035 11035 11035 11035 11035 11034 11034 11033 11033 11033 11032 11032 11031 11031 11031 11030 11030 11030 11029 11029 11028 11028 11027 11027 11026 11025 11024 11024 11023 11022 11022 11021 11021 11021 11020 11020 11020 11020 11019 11019 11019 11018 11017 11017 11016 11015 11014 11013 11013 11012 11012 11011 11010 11008 11007 11005 11004 11003
11005 11008 11009 11010 11011 11012 11011 11009 11006 11007 11011 11014 11016 11018 11020 11022 11024 11025 11025 11026 11026 11027 11028 11029 11030 11031 11032 11032 11033 11033 11033 11033 11033 11033 11032 11032 11031 11031 11031 11030 11030 11029 11029 11029 11029 11028 11028 11027 11027 11026 11026 11026 11025 11025 11024 11024 11023 11023 11022 11022 11022 11022 11022 11022 11022 11021 11021 11021 11021 11020 11020 11019 11018 11018 11017 11016 11016 11015 11014 11013 11012 11010 11009 11008 11006
11001 11004 11006 11007 11007 11007 11006 11006 11007 11009 11010 11012 11013 11015 11017 11019 11021 11022 11023 11023 11024 11025 11025 11026 11027 11028 11029 11030 11030 11030 11031 11031 11032 11031 11031 11030 11030 11030 11030 11029 11029 11028 11028 11027 11027 11027 11027 11026 11026 11025 11025 11025 11025 11025 11024 11024 11024 11023 11023 11023 11022 11022 11023 11023 11023 11023 11023 11023 11023 11023 11022 11022 11021 11021 11020 11019 11019 11018 11017 11016 11015 11014 11012 11011 11010
10998 11000 11002 11002 11003 11004 11004 11004 11005 11008 11010 11011 11011 11013 11015 11016 11018 11019 11020 11021 11022 11023 11023 11024 11025 11025 11026 11027 11028 11028 11029 11030 11030 11030 11029 11029 11028 11028 11028 11028 11027 11027 11027 11026 11026 11025 11025 11025 11024 11024 11024 11024 11024 11024 11024 11024 11023 11023 11023 11023 11023 11023 11023 11023 11024 11024 11024 11024 11024 11024 11024 11024 11024 11023 11023 11022 11021 11020 11019 11019 11018 11017 11016 11015 11013
10993 10997 10999 10998 10998 11000 11000 11000 11002 11004 11006 11008 11012 11015 11016 11016 11016 11016 11016 11017 11018 11020 11021 11021 11022 11023 11024 11025 11025 11026 11027 11028 11029 11029 11028 11027 11027 11027 11027 11026 11026 11026 11025 11025 11024 11024 11024 11023 11023 11023 11023 11023 11022 11022 11023 11022 11023 11022 11022 11022 11022 11023 11023 11023 11024 11024 11025 11025 11026 11026 11026 11025 11025 11025 11024 11024 11023 11022 11021 11021 11020 11019 11019 11018 11017
10988 10993 10996 10996 10995 10995 10994 10995 10997 11000 11003 11006 11011 11014 11014 11015 11015 11012 11012 11013 11014 11015 11017 11018 11020 11021 11022 11023 11023 11024 11026 11026 11027 11028 11027 11026 11025 11025 11025 11024 11024 11024 11024 11024 11023 11023 11022 11022 11022 11021 11021 11021 11021 11021 11021 11021 11021 11021 11021 11022 11022 11022 11022 11022 11023 11023 11024 11025 11026 11026 11026 11026 11026 11026 11026 11025 11025 11024 11023 11022 11022 11021 11021 11020 11019
10983 10988 10992 10993 10993 10991 10990 10991 10994 10997 11000 11004 11007 11008 11008 11010 11009 11005 11004 11007 11007 11008 11011 11014 11016 11018 11019 11020 11021 11022 11023 11024 11025 11026 11026 11025 11024 11023 11023 11022 11022 11022 11022 11023 11022 11022 11021 11021 11020 11020 11019 11019 11019 11019 11019 11019 11019 11019 11020 11020 11021 11021 11021 11021 11022 11022 11023 11024 11025 11025 11026 11026 11026 11026 11026 11026 11026 11025 11025 11024 11023 11023 11022 11021 11021
10975 10981 10986 10988 10988 10988 10989 10990 10992 10995 10998 11001 11002 11002 11002 11004 11003 10999 10996 10995 10995 10997 11002 11007 11010 11012 11014 11016 11017 11018 11019 11020 11021 11022 11023 11023 11022 11021 11020 11020 11020 11020 11020 11021 11021 11021 11020 11020 11019 11019 11018 11018 11017 11017 11017 11017 11017 11017 11018 11018 11019 11019 11020 11020 11021 11021 11022 11022 11023 11024 11025 11026 11026 11026 11026 11026 11026 11026 11025 11025 11024 11024 11023 11022 11022
10968 10972 10977 10981 10983 10984 10986 10987 10989 10992 10994 10995 10996 10997 10997 10997 10997 10996 10993 10990 10990 10992 10997 11001 11004 11006 11009 11011 11013 11013 11015 11017 11018 11018 11020 11020 11020 11019 11017 11017 11018 11018 11018 11019 11019 11019 11019 11019 11019 11018 11018 11017 11017 11016 11016 11016 11016 11016 11016 11016 11017 11017 11018 11019 11019 11020 11020 11021 11021 11022 11023 11024 11025 11025 11025 11025 11025 11025 11025 11025 11025 11024 11023 11023 11022
10961 10965 10969 10972 10975 10978 10980 10982 10985 10986 10987 10989 10990 10990 10991 10991 10991 10991 10990 10990 10990 10992 10994 10998 11000 11002 11006 11009 11011 11011 11012 11013 11015 11015 11016 11017 11017 11016 11015 11015 11015 11016 11016 11017 11017 11017 11018 11018 11018 11017 11017 11017 11016 11016 11015 11015 11016 11015 11015 11015 11016 11016 11016 11017 11018 11018 11019 11019 11020 11020 11021 11022 11023 11023 11024 11024 11024 11025 11025 11024 11024 11024 11023 11023 11022
10954 10957 10961 10964 10968 10971 10974 10976 10979 10980 10980 10982 10983 10984 10986 10986 10986 10986 10986 10987 10988 10989 10992 10995 10997 11000 11003 11006 11008 11009 11010 11012 11013 11013 11014 11015 11014 11013 11012 11012 11012 11013 11014 11015 11015 11016 11016 11017 11017 11017 11017 11016 11016 11016 11015 11015 11015 11015 11015 11014 11014 11014 11014 11015 11016 11017 11017 11018 11018 11019 11019 11020 11021 11021 11022 11022 11023 11023 11023 11023 11023 11023 11023 11022 11022
10945 10949 10953 10956 10960 10963 10966 10969 10972 10973 10973 10975 10977 10979 10980 10981 10981 10981 10982 10984 10985 10987 10989 10992 10994 10996 10998 11000 11002 11005 11007 11009 11010 11010 11011 11012 11012 11011 11010 11010 11009 11010 11011 11013 11013 11014 11014 11015 11016 11016 11016 11016 11016 11015 11015 11015 11015 11015 11015 11014 11014 11013 11013 11013 11014 11015 11016 11016 11016 11017 11018 11019 11019 11020 11020 11021 11021 11021 11022 11022 11022 11022 11022 11022 11021
10937 10941 10944 10948 10952 10955 10958 10961 10964 10965 10966 10968 10971 10973 10973 10974 10975 10975 10977 10979 10981 10983 10986 10988 10990 10992 10994 10997 11000 11003 11006 11008 11007 11006 11006 11007 11009 11009 11008 11007 11006 11007 11009 11011 11011 11012 11012 11013 11014 11014 11015 11016 11016 11015 11015 11015 11015 11015 11015 11014 11014 11013 11012 11011 11012 11012 11014 11015 11015 11015 11016 11017 11017 11018 11018 11019 11019 11019 11019 11020 11020 11020 11020 11020 11020
10928 10932 10936 10940 10943 10947 10950 10952 10955 10957 10959 10962 10965 10966 10967 10968 10969 10969 10971 10973 10975 10977 10980 10983 10985 10987 10990 10993 10997 11002 11006 11007 11006 11005 11005 11004 11004 11005 11005 11004 11003 11004 11006 11008 11009 11009 11010 11011 11012 11013 11014 11015 11015 11015 11015 11015 11015 11015 11015 11015 11014 11012 11011 11011 11011 11011 11012 11013 11013 11014 11014 11015 11015 11016 11016 11016 11016 11017 11017 11017 11017 11018 11017 11017 11017
10920 10924 10928 10932 10935 10938 10941 10944 10946 10948 10951 10954 10957 10958 10959 10961 10962 10962 10964 10968 10970 10972 10974 10977 10980 10982 10984 10988 10991 10995 10999 10999 10998 10998 10998 10999 10999 11000 11001 11000 11000 11001 11003 11005 11006 11007 11007 11008 11009 11010 11012 11014 11014 11014 11014 11014 11014 11014 11015 11015 11014 11012 11011 11011 11010 11010 11011 11011 11012 11012 11013 11013 11013 11013 11013 11014 11014 11014 11015 11015 11015 11015 11015 11014 11014
10911 10915 10919 10923 10927 10930 10933 10935 10938 10939 10942 10946 10947 10948 10951 10953 10954 10954 10958 10961 10964 10966 10968 10970 10973 10976 10978 10981 10984 10986 10988 10988 10986 10984 10987 10990 10993 10995 10997 10997 10997 10999 11000 11001 11002 11003 11005 11006 11007 11008 11009 11011 11012 11012 11012 11012 11013 11014 11015 11015 11014 11012 11011 11010 11010 11010 11010 11010 11010 11011 11011 11012 11012 11012 11012 11012 11012 11012 11012 11012 11013 11013 11012 11011 11010
10902 10907 10911 10914 10918 10921 10924 10927 10930 10931 10932 10936 10939 10939 10941 10945 10948 10949 10951 10953 10956 10958 10961 10963 10966 10968 10970 10973 10975 10977 10980 10981 10980 10978 10980 10983 10985 10988 10992 10993 10995 10996 10997 10997 10998 11000 11002 11004 11005 11006 11006 11007 11008 11009 11009 11009 11010 11012 11014 11014 11013 11012 11011 11011 11010 11010 11009 11009 11009 11009 11010 11010 11010 11011 11010 11010 11010 11010 11010 11009 11009 11009 11010 11010 11009
10893 10897 10901 10904 10908 10912 10915 10918 10921 10923 10923 10926 10929 10930 10932 10937 10941 10944 10945 10946 10948 10950 10953 10956 10959 10961 10963 10965 10968 10971 10974 10976 10977 10977 10977 10978 10979 10981 10984 10986 10988 10991 10992 10993 10993 10995 10998 11001 11003 11003 11003 11004 11005 11006 11006 11005 11006 11009 11011 11012 11012 11012 11011 11011 11010 11009 11009 11009 11008 11008 11009 11009 11009 11009 11009 11009 11009 11009 11008 11007 11006 11006 11005 11006 11006
10883 10886 10889 10894 10899 10902 10906 10909 10912 10914 10915 10918 10920 10922 10924 10929 10933 10936 10937 10938 10941 10943 10946 10948 10951 10954 10956 10958 10961 10965 10967 10969 10971 10973 10974 10974 10974 10975 10977 10980 10982 10985 10987 10988 10989 10992 10994 10996 10997 10998 10999 11000 11002 11002 11002 11001 11002 11005 11008 11009 11009 11010 11010 11010 11010 11009 11009 11008 11008 11008 11008 11008 11008 11008 11008 11007 11007 11007 11006 11005 11005 11005 11003 11002 11002
10872 10875 10879 10884 10888 10892 10896 10900 10902 10905 10908 10910 10912 10915 10918 10921 10924 10927 10928 10930 10933 10936 10939 10941 10944 10946 10948 10951 10954 10957 10959 10961 10963 10965 10967 10969 10970 10971 10973 10975 10977 10980 10982 10983 10985 10988 10989 10990 10991 10992 10994 10995 10997 10998 10998 10998 11000 11003 11005 11006 11007 11007 11008 11009 11009 11008 11008 11008 11008 11007 11007 11007 11008 11007 11007 11006 11006 11005 11004 11003 11003 11003 11002 11000 10999
10860 10864 10868 10872 10876 10881 10886 10890 10893 10896 10898 10900 10902 10906 10910 10913 10916 10919 10920 10922 10924 10927 10930 10934 10936 10939 10941 10943 10946 10948 10951 10952 10955 10957 10960 10963 10965 10966 10968 10969 10972 10974 10976 10977 10980 10982 10983 10984 10985 10987 10988 10990 10992 10993 10994 10996 10998 11001 11002 11003 11004 11004 11005 11006 11007 11007 11008 11008 11007 11007 11006 11006 11007 11007 11006 11005 11004 11004 11003 11002 11001 11000 11000 10999 10997
10848 10853 10857 10861 10865 10870 10874 10880 10884 10886 10888 10890 10894 10898 10901 10905 10908 10910 10912 10915 10916 10918 10921 10925 10928 10931 10933 10935 10938 10941 10942 10943 10945 10949 10953 10956 10959 10960 10962 10964 10967 10969 10970 10972 10975 10976 10977 10979 10981 10982 10984 10986 10987 10988 10990 10993 10995 10997 10998 11000 11001 11001 11002 11002 11003 11004 11006 11006 11006 11006 11005 11005 11005 11005 11005 11004 11003 11002 11002 11001 10999 10998 10997 10996 10995
10836 10841 10845 10849 10853 10858 10864 10869 10873 10875 10877 10880 10884 10888 10891 10896 10899 10901 10904 10907 10909 10910 10912 10917 10921 10923 10925 10927 10930 10933 10934 10935 10937 10941 10944 10948 10951 10953 10955 10958 10961 10963 10965 10968 10971 10971 10971 10974 10976 10978 10980 10982 10983 10984 10986 10988 10991 10993 10995 10997 10998 10998 10998 10999 11000 11001 11003 11004 11004 11004 11004 11003 11003 11003 11003 11002 11001 11001 11000 10999 10998 10997 10995 10994 10993
10824 10829 10833 10837 10842 10847 10853 10857 10861 10864 10867 10870 10874 10879 10882 10886 10890 10892 10894 10898 10900 10901 10903 10908 10913 10915 10916 10918 10922 10924 10926 10928 10930 10933 10936 10939 10942 10945 10947 10951 10954 10956 10960 10964 10966 10966 10966 10968 10971 10973 10976 10978 10979 10980 10982 10984 10987 10989 10991 10993 10994 10995 10995 10995 10996 10997 10999 11000 11001 11002 11002 11002 11001 11001 11000 11000 10999 10998 10997 10996 10995 10994 10994 10993 10991
10811 10815 10820 10825 10830 10835 10840 10845 10849 10853 10856 10859 10864 10870 10873 10876 10879 10882 10884 10887 10890 10893 10896 10900 10905 10907 10908 10910 10913 10916 10919 10921 10923 10925 10927 10931 10934 10937 10940 10943 10946 10949 10953 10957 10959 10960 10961 10963 10965 10967 10971 10973 10974 10975 10978 10980 10982 10984 10987 10988 10989 10990 10990 10991 10992 10993 10995 10996 10998 10999 10999 10999 10999 10998 10998 10997 10996 10995 10994 10992 10991 10990 10990 10989 10988
10796 10802 10807 10812 10817 10822 10827 10832 10837 10840 10844 10848 10854 10859 10863 10865 10867 10870 10873 10876 10880 10884 10887 10890 10894 10898 10900 10901 10904 10907 10910 10913 10916 10918 10920 10923 10926 10930 10933 10935 10939 10942 10945 10948 10951 10954 10956 10958 10960 10961 10965 10968 10969 10970 10973 10976 10978 10979 10980 10981 10982 10983 10984 10985 10987 10988 10989 10991 10993 10994 10995 10996 10996 10995 10994 10993 10993 10992 10990 10988 10987 10985 10984 10982 10982
10781 10788 10793 10798 10803 10808 10813 10818 10823 10827 10832 10837 10842 10847 10850 10852 10856 10859 10862 10866 10870 10874 10877 10880 10884 10888 10891 10893 10895 10897 10900 10905 10909 10911 10913 10915 10918 10922 10925 10928 10931 10934 10937 10939 10943 10947 10950 10952 10954 10956 10959 10961 10963 10964 10968 10971 10972 10973 10973 10973 10974 10975 10976 10978 10980 10982 10984 10986 10988 10990 10991 10992 10992 10991 10991 10989 10988 10987 10986 10985 10983 10981 10978 10976 10976
10765 10772 10778 10783 10788 10794 10799 10804 10809 10815 10820 10825 10828 10832 10835 10839 10844 10849 10852 10855 10860 10864 10866 10869 10874 10878 10880 10883 10886 10889 10891 10896 10900 10903 10905 10907 10909 10913 10917 10919 10922 10925 10929 10932 10935 10939 10943 10945 10948 10950 10952 10954 10956 10959 10962 10964 10966 10967 10966 10965 10966 10968 10970 10972 10973 10974 10977 10980 10983 10985 10987 10987 10987 10987 10986 10985 10984 10982 10980 10977 10975 10973 10972 10972 10971
10748 10755 10761 10768 10774 10780 10785 10790 10796 10802 10807 10811 10814 10817 10822 10827 10832 10837 10841 10844 10848 10852 10856 10859 10862 10866 10870 10873 10877 10880 10882 10885 10889 10892 10895 10898 10900 10904 10908 10911 10914 10917 10921 10923 10926 10931 10934 10937 10940 10942 10945 10947 10950 10952 10955 10957 10958 10958 10956 10955 10957 10959 10963 10964 10963 10962 10965 10972 10977 10981 10983 10985 10984 10984 10983 10982 10979 10975 10969 10966 10966 10967 10968 10968 10966
10731 10738 10745 10751 10759 10766 10771 10776 10781 10787 10793 10797 10800 10804 10809 10815 10819 10824 10829 10833 10837 10840 10844 10848 10851 10855 10859 10863 10868 10870 10870 10873 10878 10882 10885 10889 10892 10896 10899 10903 10907 10910 10913 10914 10917 10922 10925 10929 10932 10936 10938 10940 10942 10944 10946 10948 10949 10947 10945 10946 10947 10949 10950 10951 10949 10947 10950 10958 10965 10972 10978 10981 10982 10982 10980 10974 10967 10962 10960 10960 10963 10964 10964 10963 10962
10712 10720 10728 10735 10743 10750 10756 10760 10765 10771 10777 10782 10786 10790 10795 10801 10806 10811 10816 10821 10825 10829 10832 10836 10840 10843 10847 10854 10858 10859 10859 10862 10867 10871 10875 10879 10883 10887 10891 10894 10899 10902 10904 10905 10908 10912 10917 10920 10924 10928 10930 10931 10932 10935 10938 10940 10940 10938 10938 10940 10942 10942 10941 10939 10937 10936 10939 10943 10949 10958 10966 10970 10972 10974 10969 10958 10952 10954 10956 10957 10957 10957 10957 10957 10957
10693 10701 10709 10717 10725 10733 10739 10744 10749 10754 10761 10767 10772 10777 10782 10787 10793 10798 10803 10808 10813 10817 10820 10823 10828 10831 10837 10844 10848 10848 10848 10852 10856 10860 10865 10869 10873 10877 10881 10885 10889 10893 10895 10897 10900 10903 10907 10911 10914 10918 10920 10921 10923 10927 10931 10932 10931 10930 10931 10934 10937 10938 10936 10933 10930 10931 10933 10936 10939 10943 10948 10953 10960 10963 10956 10945 10942 10947 10949 10949 10950 10951 10950 10950 10950
10675 10682 10690 10698 10706 10713 10720 10726 10732 10738 10744 10751 10758 10764 10769 10774 10778 10784 10790 10795 10800 10804 10807 10811 10815 10820 10826 10833 10836 10837 10838 10841 10845 10849 10854 10858 10862 10867 10870 10874 10878 10882 10885 10888 10891 10895 10898 10901 10904 10908 10910 10912 10915 10920 10923 10924 10923 10922 10923 10926 10930 10932 10932 10931 10929 10930 10932 10934 10936 10937 10937 10939 10944 10946 10940 10933 10933 10938 10940 10942 10944 10944 10943 10943 10943
10657 10664 10671 10678 10686 10693 10700 10707 10714 10721 10728 10736 10744 10750 10755 10759 10764 10769 10776 10781 10786 10790 10794 10798 10802 10807 10815 10821 10825 10826 10827 10829 10833 10839 10844 10848 10851 10856 10859 10863 10867 10871 10875 10879 10882 10886 10889 10891 10895 10898 10901 10903 10907 10910 10912 10914 10915 10916 10917 10919 10922 10924 10925 10926 10927 10928 10930 10931 10934 10935 10935 10933 10930 10928 10926 10927 10928 10931 10934 10936 10937 10936 10935 10936 10936
10638 10645 10652 10659 10666 10672 10680 10687 10696 10703 10711 10720 10728 10734 10739 10744 10749 10755 10761 10766 10771 10775 10780 10784 10789 10795 10803 10810 10813 10813 10813 10816 10822 10829 10833 10836 10840 10844 10848 10852 10855 10859 10864 10868 10872 10876 10879 10882 10885 10888 10891 10894 10897 10899 10902 10905 10907 10908 10909 10911 10914 10915 10917 10919 10921 10922 10924 10925 10927 10928 10929 10928 10925 10923 10924 10924 10923 10926 10931 10932 10929 10927 10927 10927 10927
10618 10625 10633 10640 10645 10652 10660 10669 10678 10686 10694 10702 10710 10717 10722 10727 10734 10740 10745 10751 10756 10761 10766 10771 10776 10782 10789 10797 10800 10800 10800 10805 10811 10817 10821 10825 10829 10833 10838 10842 10844 10847 10851 10856 10861 10865 10869 10872 10875 10879 10882 10885 10887 10889 10892 10895 10898 10900 10902 10904 10905 10907 10909 10911 10913 10914 10916 10918 10919 10920 10921 10921 10921 10922 10923 10919 10915 10917 10923 10924 10920 10916 10914 10915 10917
10597 10606 10614 10621 10626 10632 10640 10650 10660 10668 10675 10683 10691 10698 10704 10710 10717 10724 10730 10735 10741 10747 10752 10757 10763 10769 10775 10782 10786 10787 10789 10793 10799 10804 10809 10813 10817 10822 10827 10831 10834 10837 10840 10844 10849 10853 10858 10862 10866 10869 10872 10875 10877 10879 10882 10884 10887 10890 10893 10896 10897 10898 10899 10902 10904 10906 10908 10910 10911 10912 10912 10912 10912 10914 10915 10911 10907 10906 10909 10911 10909 10906 10905 10905 10907
10579 10586 10594 10601 10607 10614 10622 10631 10641 10649 10656 10662 10670 10677 10684 10692 10699 10706 10712 10719 10725 10731 10737 10743 10749 10754 10760 10767 10773 10776 10777 10780 10785 10791 10796 10801 10805 10810 10814 10819 10823 10826 10829 10832 10836 10841 10846 10851 10855 10858 10861 10865 10868 10870 10873 10875 10877 10880 10884 10887 10888 10888 10889 10891 10894 10896 10899 10901 10902 10902 10901 10900 10900 10899 10899 10897 10896 10896 10897 10898 10899 10899 10899 10899 10899
10561 10568 10575 10582 10589 10596 10604 10612 10621 10629 10635 10642 10648 10656 10663 10672 10680 10686 10693 10700 10707 10714 10721 10727 10733 10738 10744 10752 10760 10763 10765 10767 10772 10777 10783 10788 10793 10797 10802 10807 10811 10815 10818 10821 10824 10828 10833 10837 10842 10846 10850 10854 10857 10861 10863 10865 10867 10869 10873 10876 10877 10878 10878 10880 10883 10885 10887 10889 10891 10891 10891 10890 10889 10888 10887 10887 10887 10888 10889 10889 10890 10891 10892 10892 10891
10544 10550 10556 10562 10569 10576 10584 10593 10601 10608 10614 10620 10627 10634 10642 10650 10658 10665 10673 10680 10688 10696 10703 10710 10716 10722 10728 10737 10744 10749 10751 10755 10759 10764 10769 10775 10780 10784 10789 10794 10798 10802 10807 10810 10813 10816 10820 10824 10829 10834 10838 10842 10846 10850 10853 10855 10857 10859 10862 10864 10866 10866 10867 10869 10871 10874 10876 10877 10879 10880 10880 10880 10880 10879 10878 10878 10879 10880 10881 10882 10882 10883 10883 10883 10883
10527 10532 10537 10542 10549 10555 10563 10572 10580 10587 10593 10599 10605 10613 10621 10628 10635 10642 10651 10659 10668 10676 10685 10693 10699 10705 10712 10721 10728 10734 10737 10741 10746 10751 10755 10761 10766 10771 10776 10781 10785 10789 10794 10798 10802 10804 10807 10811 10816 10820 10825 10829 10833 10838 10841 10843 10846 10849 10851 10853 10855 10855 10856 10857 10859 10861 10863 10866 10869 10870 10870 10871 10871 10870 10869 10869 10870 10871 10872 10873 10873 10874 10874 10874 10874
10510 10514 10518 10524 10530 10536 10544 10552 10560 10567 10574 10580 10585 10592 10599 10607 10613 10620 10629 10638 10647 10656 10666 10674 10682 10689 10696 10704 10711 10717 10722 10727 10733 10737 10741 10746 10752 10757 10763 10767 10772 10776 10781 10785 10789 10792 10795 10798 10802 10807 10812 10816 10820 10824 10828 10832 10835 10837 10840 10842 10844 10845 10846 10847 10848 10850 10852 10855 10857 10859 10860 10860 10861 10860 10860 10860 10860 10860 10861 10862 10863 10864 10864 10864 10864
10492 10496 10502 10506 10512 10518 10525 10533 10540 10548 10554 10560 10565 10571 10578 10585 10592 10599 10608 10617 10626 10636 10646 10655 10663 10671 10678 10686 10694 10701 10706 10712 10718 10723 10727 10732 10737 10743 10748 10754 10758 10763 10767 10772 10776 10779 10783 10787 10791 10794 10799 10803 10806 10810 10814 10820 10824 10826 10828 10830 10832 10833 10834 10836 10838 10840 10841 10843 10845 10847 10848 10849 10849 10850 10850 10850 10850 10850 10851 10851 10852 10852 10853 10853 10852
10475 10480 10486 10490 10495 10501 10507 10514 10521 10528 10534 10539 10545 10551 10557 10564 10571 10579 10588 10597 10606 10617 10626 10635 10643 10651 10660 10668 10676 10683 10690 10696 10703 10708 10713 10718 10723 10727 10733 10738 10744 10750 10754 10758 10763 10767 10771 10775 10779 10782 10786 10789 10793 10796 10801 10806 10811 10814 10815 10817 10818 10820 10822 10824 10826 10828 10830 10831 10833 10835 10836 10836 10837 10838 10839 10839 10839 10839 10840 10840 10840 10840 10840 10840 10840